GEFSMA_500_meanwind_162.txt.gz
Wind_Speed
21 21 21 21 21 21 21 20 21 21 21 21 21 21 20 20 21 21 21 22 23 23 22 23 23 23 22 23 23 23 23 23 24 24 24 24 23 23 23 23 23 22 22
22 22 23 23 23 23 22 22 22 22 23 22 23 23 23 22 23 24 23 23 24 24 23 23 24 24 24 24 24 24 25 24 25 26 26 26 26 26 25 24 25 25 24
23 23 23 23 23 23 24 24 24 24 24 23 23 23 24 24 23 25 25 25 25 25 25 24 25 25 25 26 26 26 26 27 28 27 27 27 27 27 27 27 26 26 26
23 23 23 23 23 23 24 24 24 24 24 24 23 23 24 23 24 24 25 26 27 26 26 26 25 25 26 27 27 28 28 29 29 29 29 29 29 28 28 28 27 27 28
23 23 23 23 24 24 25 25 25 24 24 25 25 25 25 25 25 25 25 26 26 27 27 27 26 26 27 27 28 28 28 29 30 30 30 30 29 29 29 29 29 28 29
23 24 25 25 25 25 25 25 25 25 26 26 26 26 27 28 28 27 26 26 26 26 26 27 27 27 27 28 27 27 27 28 29 31 31 31 30 29 30 31 30 30 29
26 26 26 26 25 25 25 26 26 26 27 27 27 27 27 28 28 28 28 27 27 28 27 28 28 28 28 27 27 27 27 28 29 30 32 32 31 30 31 31 31 31 31
26 26 27 27 27 27 26 26 26 27 27 27 27 27 27 28 28 28 28 28 28 28 28 29 29 29 29 28 28 27 26 27 29 30 30 31 32 31 30 31 32 32 32
27 27 27 27 27 27 27 27 28 28 28 28 28 29 28 28 28 28 28 28 28 28 28 29 29 30 29 29 29 29 28 28 28 29 29 29 30 31 30 31 31 32 32
27 27 27 27 27 27 27 28 28 29 29 29 29 30 30 29 29 28 29 29 29 29 28 29 29 28 28 29 29 29 29 28 28 29 29 29 29 30 30 31 31 32 32
28 28 28 28 28 28 27 27 28 29 29 30 30 30 30 30 29 29 28 29 29 29 30 30 30 29 29 30 30 30 30 30 28 29 29 30 30 30 31 31 30 30 31
28 29 29 29 29 29 28 28 28 29 29 29 30 30 30 30 30 29 29 29 29 30 30 29 29 30 30 30 30 31 31 31 30 29 30 31 31 31 31 31 31 31 31
29 29 29 29 29 29 29 29 30 30 29 29 29 30 30 30 30 30 30 30 30 30 30 29 29 29 30 30 30 31 31 31 31 30 30 31 31 31 31 30 31 31 32
28 29 29 29 29 29 29 30 30 30 30 30 29 29 29 30 30 30 30 30 30 30 30 30 29 28 28 29 29 30 30 30 30 30 30 30 31 31 31 31 31 32 31
28 27 27 28 28 28 29 29 30 31 31 30 29 29 29 29 30 30 30 30 30 30 29 30 29 28 28 27 28 29 29 29 29 29 30 30 30 29 30 30 29 30 30
27 27 27 27 27 27 28 30 30 30 30 29 29 29 29 29 29 30 30 29 29 29 29 29 28 29 29 28 28 27 27 27 27 28 28 28 28 28 28 28 28 29 28
27 26 26 26 26 27 27 28 29 29 28 29 29 28 28 29 29 28 28 28 28 28 28 28 27 27 26 26 26 26 26 25 26 26 27 27 28 27 28 27 27 27 27
24 24 23 24 24 24 25 26 26 26 26 26 27 27 27 27 27 27 27 26 27 27 27 26 25 25 25 25 25 24 24 25 25 25 26 26 26 26 25 25 24 24 24
21 21 21 20 21 22 23 23 23 23 23 23 24 24 24 24 25 25 25 25 25 24 24 23 23 23 23 23 23 23 22 22 22 22 23 22 22 22 21 21 22 22 23
19 18 18 18 19 19 20 20 21 20 21 20 21 21 22 22 22 22 23 23 23 22 21 21 20 20 21 21 21 21 20 20 19 19 19 19 20 20 20 20 21 21 21
17 16 16 16 17 17 17 18 18 18 18 18 18 18 18 18 19 19 19 19 19 19 18 18 18 18 18 18 18 18 18 18 17 17 17 18 18 18 18 18 19 19 19
15 15 15 15 15 16 16 16 16 16 16 15 15 15 15 15 15 15 14 14 15 15 15 15 15 15 15 15 15 15 15 15 14 14 14 15 16 15 15 16 16 16 16
14 14 14 14 15 15 15 15 14 14 13 13 13 13 13 12 11 10 10 10 11 12 12 12 12 12 12 12 12 12 12 12 12 12 13 13 13 13 13 14 14 14 14
12 11 12 13 13 13 13 13 13 13 13 12 11 11 10 9 8 7 7 8 8 8 9 10 10 10 10 9 9 9 9 10 10 11 11 11 11 11 11 12 12 13 14
11 10 11 12 12 12 12 12 12 12 11 10 10 9 8 7 7 6 5 5 5 5 5 5 6 6 6 6 6 7 7 7 8 8 9 9 9 10 11 11 12 13 14
10 9 10 9 10 12 12 11 10 10 10 9 9 7 7 6 5 5 4 3 2 2 2 2 3 3 3 3 3 4 5 5 5 6 7 7 8 9 9 11 13 13 14

GEFSMA_500_meanwind_168.txt.gz
Wind_Speed
22 22 22 21 21 21 22 22 21 21 21 21 21 21 21 21 21 21 22 22 23 23 22 21 21 21 20 20 21 21 22 22 22 22 22 23 24 23 23 24 24 24 24
21 21 22 22 22 22 21 21 21 22 23 23 23 23 23 23 23 22 23 23 24 23 22 22 22 22 22 22 22 22 23 24 23 23 23 24 25 26 25 26 25 25 25
21 21 21 21 22 22 22 22 23 23 24 24 24 24 24 24 24 23 23 23 23 23 23 23 23 23 23 23 23 23 24 24 25 25 25 25 26 26 27 27 27 27 27
21 21 22 22 22 22 22 23 23 23 24 24 24 25 25 25 24 23 24 24 24 24 24 24 25 24 25 24 24 24 24 25 25 26 27 27 27 28 28 29 29 28 29
22 22 22 22 23 23 23 24 23 23 24 25 25 26 25 25 25 25 25 25 24 25 25 26 26 25 26 25 25 25 25 26 26 27 27 27 27 28 29 29 29 30 30
23 23 23 23 24 24 24 24 24 24 24 24 25 25 25 26 26 25 26 26 26 26 26 26 26 26 26 26 26 26 26 26 26 27 27 27 27 28 29 29 30 30 30
24 24 24 25 25 26 26 25 25 25 24 24 24 24 25 25 26 26 26 27 27 27 27 26 26 26 25 26 26 26 26 26 27 26 27 26 26 26 27 28 29 29 30
24 25 25 26 27 27 27 26 26 25 25 25 25 25 25 26 26 27 27 27 27 27 27 26 26 26 26 26 26 26 26 26 26 26 26 26 26 26 26 27 28 29 29
24 24 25 26 27 28 27 27 26 26 26 27 27 27 27 26 27 27 27 27 27 27 27 27 27 27 27 27 26 26 27 27 27 27 27 27 27 27 26 27 27 28 30
25 25 26 26 27 27 27 27 27 26 26 27 27 28 28 28 28 27 28 28 28 28 28 28 28 28 28 28 27 27 28 29 29 29 29 29 29 28 27 28 28 29 30
26 26 26 26 27 26 27 27 26 26 26 26 27 27 27 28 28 27 27 28 29 28 28 28 29 29 29 29 29 29 29 29 29 29 30 30 30 29 29 29 29 29 30
26 26 27 27 27 27 27 27 26 26 26 26 26 27 27 28 27 27 27 27 28 28 28 29 29 29 29 30 31 30 30 30 30 30 30 30 30 30 31 30 29 30 29
26 26 26 26 27 27 26 26 25 25 26 27 27 27 27 27 28 28 28 28 28 28 29 29 29 30 29 30 30 30 30 31 31 31 30 30 29 29 30 30 29 30 29
26 26 25 25 26 25 26 25 25 26 27 28 28 28 29 29 28 28 28 28 28 28 29 29 29 29 29 30 30 30 30 30 29 30 29 29 28 28 28 28 29 30 29
24 24 24 24 24 24 24 25 26 27 27 28 28 28 29 29 28 28 27 27 27 28 28 28 28 29 29 29 29 29 29 28 29 29 29 28 28 28 28 28 29 29 30
23 23 23 23 23 24 24 24 25 25 26 26 27 27 27 27 27 27 27 26 27 26 25 26 26 27 28 27 28 28 28 28 27 28 27 27 27 27 27 27 28 29 29
22 22 22 21 22 22 23 23 23 24 24 25 25 25 25 25 25 25 26 26 26 25 25 24 25 25 25 25 26 26 26 26 26 26 26 26 26 26 26 26 26 27 28
21 20 20 21 21 21 22 22 22 23 23 23 23 23 22 23 23 23 23 23 24 24 23 22 23 23 23 23 24 24 24 25 25 25 25 25 24 25 24 24 24 25 26
19 19 20 20 20 20 20 20 21 20 20 21 21 20 20 20 20 20 20 20 21 21 21 21 22 22 22 21 21 22 22 22 22 23 23 23 23 23 23 22 23 23 23
17 17 18 18 18 18 18 18 18 17 18 17 17 17 17 17 17 17 18 18 18 19 20 20 20 20 20 19 19 19 19 19 20 21 21 21 21 21 21 21 21 21 22
16 16 16 16 16 15 15 15 15 15 15 14 14 15 15 15 15 15 16 17 17 17 17 17 17 17 17 17 16 16 17 17 17 17 18 18 19 19 19 19 19 19 19
14 14 13 13 13 13 13 13 14 13 13 13 14 13 13 12 12 12 13 13 13 13 13 13 13 12 12 13 13 14 14 14 14 14 15 15 15 16 16 16 17 17 17
12 12 12 11 11 11 12 12 12 12 11 11 11 11 10 10 10 10 9 9 8 8 8 9 8 8 9 10 10 11 11 12 12 12 12 12 13 13 14 14 14 15 15
10 10 10 11 11 11 11 12 11 11 10 10 9 8 8 7 7 7 6 6 5 5 4 4 5 5 6 6 7 7 7 8 8 9 10 10 11 12 11 12 12 13 13
8 8 9 10 10 11 10 10 10 10 9 9 8 7 7 7 7 6 4 3 3 2 2 2 3 4 4 4 3 4 5 5 5 6 7 7 8 9 10 11 12 12 12
8 8 8 8 9 9 10 10 9 9 9 9 8 8 7 6 6 5 4 4 3 2 1 0 1 2 3 2 1 2 3 4 4 5 5 6 7 9 9 10 11 11 11

GEFSMA_500_meanwind_174.txt.gz
Wind_Speed
20 21 21 22 22 23 23 24 24 24 25 25 24 24 24 24 24 24 24 24 25 25 25 24 24 23 23 23 23 23 22 22 22 21 21 21 21 21 22 22 22 22 22
21 21 22 22 23 23 23 23 24 24 25 25 24 25 25 25 26 26 26 26 26 26 26 25 25 25 25 25 24 24 24 23 23 24 23 23 23 22 23 23 23 24 24
21 21 21 23 24 24 24 24 25 25 26 26 26 26 26 26 26 26 26 25 26 26 26 26 26 26 26 26 25 25 25 25 25 24 25 25 24 24 24 24 24 25 25
22 22 22 23 23 24 24 25 25 25 25 26 26 26 26 27 27 26 26 26 26 26 25 25 26 26 27 27 27 26 26 26 26 25 26 26 26 26 26 25 25 25 26
22 22 22 23 24 25 25 25 25 25 25 26 26 27 27 27 27 27 27 27 27 27 27 27 27 27 27 27 26 26 26 26 27 27 27 27 28 27 27 27 26 26 26
23 23 23 24 25 26 26 26 26 27 27 26 27 27 27 27 28 28 28 27 27 27 28 28 28 28 28 27 27 27 27 27 28 27 27 27 28 28 28 27 27 26 26
24 24 25 25 26 26 27 27 28 28 28 28 28 27 27 28 29 28 28 28 28 28 28 28 28 28 28 28 28 28 28 28 28 28 28 28 27 27 27 27 27 28 27
25 26 26 26 27 27 27 27 28 29 29 28 28 28 28 28 28 29 29 29 29 29 29 28 29 29 29 29 28 28 28 28 28 28 29 29 28 28 28 29 28 28 28
26 26 27 27 28 28 28 28 28 28 28 28 28 28 28 28 28 28 28 28 28 29 29 29 29 29 29 30 29 29 28 27 28 29 29 29 30 29 29 29 29 29 29
25 26 26 27 27 27 27 27 27 27 27 28 29 28 28 28 27 27 28 28 29 29 30 30 30 30 30 29 29 30 29 29 30 31 31 31 30 30 29 28 29 29 30
24 25 24 25 25 26 26 27 27 27 28 28 28 28 28 29 28 27 28 28 29 30 30 30 31 31 31 31 31 31 31 31 32 33 32 32 31 31 30 30 30 30 30
23 24 24 25 25 26 27 27 27 28 28 29 28 29 29 29 28 28 29 29 29 29 30 30 31 32 32 32 32 33 33 33 32 32 33 33 32 31 31 31 31 31 30
25 25 25 25 25 26 27 28 29 29 29 28 28 28 27 27 28 28 29 29 29 29 30 30 31 32 33 33 33 33 34 33 33 33 33 32 32 31 31 31 31 30 30
25 25 26 26 26 26 27 28 28 28 29 28 27 27 27 27 27 28 28 28 28 28 29 30 31 32 32 32 32 32 33 33 33 33 32 32 32 32 31 31 31 30 30
24 25 26 27 27 27 26 25 26 26 26 26 26 26 26 26 27 27 27 27 27 27 27 27 28 29 30 30 31 31 32 32 32 32 32 32 32 32 32 31 31 31 31
24 24 25 25 26 26 25 25 24 24 24 24 24 24 24 23 24 25 26 26 26 26 26 26 26 26 27 27 29 29 30 31 31 31 31 31 31 31 31 31 31 31 31
23 23 23 24 24 24 23 23 22 22 22 22 22 22 22 22 22 24 24 24 25 25 25 24 24 25 25 25 25 27 28 29 30 30 30 29 29 28 29 29 30 30 30
22 23 23 23 22 22 22 22 21 21 20 20 20 20 20 20 21 22 22 23 23 22 22 22 22 23 24 25 24 24 26 26 26 27 27 27 28 28 27 28 28 29 29
21 22 22 21 21 20 20 19 18 18 18 18 18 18 18 19 19 19 19 19 20 20 20 20 21 22 23 23 22 22 23 24 24 25 25 25 25 26 26 26 27 27 28
19 19 19 19 18 18 18 17 17 16 16 16 16 17 17 17 17 17 17 17 17 18 18 19 19 19 19 19 20 19 20 19 19 20 21 22 23 24 23 23 24 25 25
16 16 16 16 16 17 16 16 16 15 14 14 14 14 14 15 14 15 15 15 16 15 16 16 16 15 16 16 16 16 16 16 16 16 17 18 19 20 20 20 21 22 22
14 14 15 15 15 14 14 14 14 13 12 12 12 12 12 13 13 13 13 13 13 13 13 13 13 12 12 13 13 13 14 14 14 14 14 15 16 16 17 18 18 19 19
14 14 14 14 13 13 13 12 12 11 11 11 11 11 12 12 11 10 10 10 10 10 10 10 9 8 9 10 10 10 11 11 11 12 12 12 13 13 14 15 16 17 17
13 13 13 13 13 12 12 11 11 10 10 10 10 11 11 11 10 9 9 9 9 8 7 6 6 5 5 6 7 7 8 8 8 9 9 9 10 11 12 13 13 14 14
12 12 12 12 11 11 11 11 10 10 10 11 11 11 11 10 9 8 8 8 8 8 6 5 5 4 4 5 5 5 5 5 6 6 7 7 8 9 10 11 13 13 14
12 12 11 11 11 11 11 11 11 10 11 11 11 10 10 9 8 8 8 8 7 6 5 5 4 3 2 3 3 3 3 4 5 5 6 6 8 9 10 12 13 14 15

GEFSMA_500_meanwind_180.txt.gz
Wind_Speed
20 21 21 22 21 21 21 21 21 21 22 22 22 22 23 24 24 24 24 24 24 24 24 25 25 25 25 26 25 25 24 24 24 24 24 24 23 23 23 22 22 21 22
21 21 22 22 23 22 21 22 22 22 23 23 23 24 24 24 24 24 24 24 24 24 25 26 26 26 26 26 26 25 26 26 26 26 26 25 25 25 25 25 24 24 23
20 21 22 23 23 23 22 23 24 24 25 25 25 24 25 25 25 25 25 25 25 25 25 26 26 26 26 26 26 26 26 27 27 27 27 27 27 26 26 27 26 25 24
22 22 22 23 23 23 23 24 24 25 25 25 25 25 25 26 26 26 26 26 27 27 26 27 26 26 26 26 27 27 26 27 27 26 27 27 27 27 27 27 27 27 26
23 24 24 24 24 24 24 25 25 25 25 25 26 26 26 26 26 26 27 28 27 27 28 28 28 28 28 28 28 28 29 28 28 27 27 27 27 27 27 27 28 27 27
24 24 25 25 25 25 25 25 25 25 25 25 26 26 27 28 27 27 28 29 29 29 29 28 28 29 29 29 29 29 29 28 28 28 27 27 27 27 27 27 28 27 27
23 24 24 25 25 25 25 26 25 25 26 25 26 27 27 28 28 28 28 29 30 30 29 29 28 29 29 30 30 30 29 29 28 28 27 27 28 28 28 28 29 28 27
22 23 24 24 25 25 25 25 25 25 25 25 26 26 26 27 28 29 30 30 30 30 30 30 30 30 29 29 29 30 30 30 29 28 28 28 28 29 29 29 30 29 29
23 23 24 24 25 25 25 26 26 26 27 27 27 27 27 27 28 29 30 30 30 30 30 30 30 31 32 31 31 31 31 30 31 31 30 29 30 29 30 31 31 31 31
23 25 25 26 26 26 26 26 27 27 27 27 28 29 29 28 28 29 30 30 31 31 31 31 31 32 32 32 32 32 31 31 32 32 31 31 31 31 31 32 32 32 31
24 25 26 26 25 25 26 27 27 28 28 29 29 29 29 29 29 28 29 30 30 31 31 31 31 32 33 32 33 33 33 33 33 33 33 32 32 32 32 33 33 33 32
25 26 27 26 26 26 26 27 27 28 29 29 29 29 30 30 30 29 29 28 28 29 29 29 29 31 32 32 32 32 33 34 34 34 34 34 34 34 34 34 33 33 33
26 26 26 25 25 26 27 27 28 28 28 28 29 29 29 29 29 29 28 28 28 27 27 28 28 29 30 31 31 31 32 33 34 34 34 34 34 34 34 33 33 33 32
24 24 25 25 25 26 26 27 27 27 27 27 28 27 27 27 28 28 28 27 26 26 27 28 28 27 27 28 29 30 30 31 32 33 34 34 33 33 33 34 34 33 33
23 24 24 25 25 26 26 26 26 26 26 26 25 25 25 25 25 25 25 26 25 25 26 26 26 25 25 26 27 28 28 29 30 32 32 33 32 33 33 33 33 33 32
22 22 23 23 24 24 24 24 24 24 24 23 23 22 23 23 23 23 23 24 24 24 23 24 24 24 24 24 25 26 26 27 28 30 31 31 31 31 32 32 33 33 33
20 21 21 22 22 23 23 23 23 22 22 21 20 20 21 22 22 22 21 21 22 22 22 21 21 22 23 23 24 25 26 27 27 28 29 29 29 29 30 30 31 31 31
19 20 20 20 20 21 22 21 21 20 19 18 17 17 18 19 19 18 19 19 20 20 21 21 20 21 22 22 22 23 24 25 25 26 27 27 27 28 27 27 28 28 29
19 19 19 18 18 19 19 19 19 18 17 15 15 15 15 15 15 15 16 17 18 19 19 20 20 20 21 21 21 22 22 22 23 23 23 23 24 24 24 24 25 26 27
18 18 18 18 18 18 18 17 16 15 14 13 14 14 14 13 13 13 14 15 16 17 18 19 19 18 18 19 19 19 19 20 20 20 20 20 21 21 22 22 23 24 24
17 17 17 17 17 17 17 16 14 13 12 12 12 12 11 12 12 12 13 13 14 15 16 16 16 15 15 16 16 16 16 16 16 16 17 18 19 20 20 20 21 21 22
14 14 15 16 16 16 15 14 14 12 12 11 10 9 10 10 11 11 11 12 12 13 12 13 13 13 13 13 13 13 14 15 15 15 15 16 16 17 17 18 19 20 21
12 13 14 15 15 14 14 15 14 12 11 10 9 9 9 9 10 10 10 11 11 11 11 10 10 10 10 10 11 11 12 13 13 14 14 14 15 15 15 16 17 18 19
12 13 14 14 14 13 13 13 12 11 10 10 9 9 9 9 10 9 9 9 9 9 9 8 8 7 7 8 8 9 10 10 11 12 12 12 13 13 13 13 15 16 17
12 13 13 13 13 12 12 12 11 10 9 9 9 8 8 9 9 9 8 8 9 9 8 7 7 6 7 7 7 7 8 9 9 10 11 11 12 12 13 13 14 14 15
11 12 12 13 12 12 12 11 10 10 9 9 8 8 9 9 8 9 8 8 8 8 8 7 6 7 6 6 6 6 7 7 7 8 9 10 10 11 11 13 14 14 14

GEFSMA_500_meanwind_186.txt.gz
Wind_Speed
21 22 22 22 22 21 21 21 21 21 20 20 21 21 22 22 22 22 22 23 23 24 24 25 25 25 25 26 26 26 26 27 27 28 27 26 26 26 26 27 27 27 25
22 23 23 22 22 22 22 22 21 21 21 22 23 23 23 23 23 23 24 23 23 24 25 25 25 26 26 26 27 27 27 28 28 28 28 28 28 28 28 27 27 27 27
22 23 23 23 22 22 22 22 22 22 23 24 24 24 24 24 24 24 25 25 25 26 26 26 26 27 27 28 28 28 28 28 28 28 28 28 28 28 29 29 28 28 29
23 24 24 23 23 22 22 23 23 24 24 24 24 25 25 25 25 25 25 26 26 27 27 28 28 28 28 28 29 29 29 29 28 27 28 28 28 28 28 29 30 29 29
24 24 23 24 23 23 23 24 24 24 25 25 25 26 27 27 26 26 26 27 27 27 28 28 29 29 29 29 29 29 29 29 29 29 29 29 28 28 28 29 29 29 28
25 24 24 25 24 24 24 25 25 25 25 26 26 26 27 27 27 26 27 27 27 28 28 29 29 29 30 29 29 29 29 29 30 30 30 30 29 29 28 28 27 28 28
25 24 25 25 25 25 25 26 26 26 26 27 27 27 27 27 27 27 27 27 28 29 29 29 29 29 29 30 31 30 30 29 29 30 30 30 30 30 30 30 30 30 30
25 25 25 25 25 26 26 26 27 28 28 28 27 26 27 27 28 27 27 27 27 28 28 29 30 30 29 30 31 32 31 30 30 30 31 32 31 30 30 31 31 31 31
25 26 26 26 26 27 27 28 28 28 28 28 28 27 28 28 28 28 27 27 27 28 28 28 29 29 29 30 30 32 32 33 32 31 32 33 33 32 31 31 31 31 32
25 25 26 26 26 27 27 28 28 29 29 29 29 29 29 29 29 28 28 28 28 28 28 28 28 29 28 29 30 30 31 33 33 32 32 32 32 32 31 31 31 31 32
25 25 26 26 26 26 27 27 28 28 28 28 28 28 28 29 29 29 29 29 28 28 28 28 28 28 28 28 29 31 31 32 32 33 32 32 32 32 32 31 30 30 31
24 24 25 26 26 26 26 26 27 27 27 27 27 27 27 28 28 29 29 29 29 28 28 29 28 29 30 30 30 30 30 30 31 31 32 32 31 31 31 31 31 30 30
24 24 25 25 26 25 26 26 26 25 25 26 27 27 27 26 27 28 28 28 27 27 28 28 28 28 29 29 29 29 29 29 30 30 31 32 31 31 31 32 32 31 31
25 24 25 25 24 24 25 25 24 25 25 25 26 26 26 26 26 27 28 28 27 26 26 26 27 28 27 27 27 27 27 27 28 28 29 30 31 31 32 32 33 33 33
24 23 23 22 23 23 23 24 24 25 25 25 26 26 25 25 25 25 26 26 26 26 25 25 25 26 26 26 26 26 26 27 27 27 27 29 30 31 32 32 33 33 33
23 22 22 22 22 22 22 23 24 23 24 24 25 25 24 24 24 24 24 24 24 24 23 22 22 23 24 24 24 24 25 25 25 26 26 27 29 30 31 32 32 32 32
22 22 21 21 21 21 21 22 23 22 22 22 23 22 22 21 21 21 21 21 22 22 21 21 21 22 22 22 22 22 22 23 23 24 25 25 26 28 29 30 30 31 31
21 21 20 20 21 21 21 21 21 20 20 20 20 19 18 18 18 19 18 18 18 18 19 20 20 20 20 20 20 20 21 21 21 22 23 24 24 25 26 27 27 28 28
20 20 20 20 21 20 20 19 19 19 18 18 18 17 16 16 17 16 16 16 16 17 18 19 18 18 18 19 19 19 19 20 20 21 21 22 22 22 23 24 24 25 25
19 19 20 20 20 19 18 17 17 18 17 17 17 17 16 15 14 14 15 16 16 16 17 17 16 16 16 17 17 18 18 19 19 18 18 19 21 21 21 22 22 23 23
18 18 19 19 19 18 17 16 17 18 17 17 16 15 14 13 13 14 14 14 14 15 15 14 15 15 15 15 15 16 16 16 16 16 16 16 17 18 19 19 20 21 21
16 17 17 18 17 17 16 16 16 16 15 15 15 14 14 13 13 13 13 13 13 13 13 13 13 14 15 14 14 13 14 14 14 15 15 15 15 16 17 18 19 19 20
15 16 17 17 16 16 16 15 15 15 14 15 14 14 13 13 12 12 12 12 13 13 13 14 13 13 14 14 13 13 13 12 13 13 14 14 14 14 14 15 16 17 17
15 16 16 16 16 16 15 15 15 15 15 15 15 14 13 12 12 12 12 12 12 13 13 13 13 13 13 13 12 12 13 12 12 11 12 13 13 13 13 13 14 14 16
15 15 15 16 15 15 14 15 15 15 15 15 15 14 14 13 12 13 12 12 12 12 12 12 11 12 12 11 10 10 10 11 11 11 11 11 12 13 14 14 14 14 15
14 14 14 14 15 15 15 15 15 15 15 15 15 15 14 14 14 13 13 13 12 12 12 11 11 11 11 10 10 9 9 10 10 11 11 12 12 12 13 13 14 15 15